Flag for Germany Weather past 2 weeks in Buchholz in der Nordheide, Lower Saxony, Germany

Now
59 °F

Sprinkles. Broken clouds.


Feels Like: 57 °F
Forecast: 47 / 67 °F
Wind: 9 mph from West

Location: Hamburg-Finkenwerder

Current Time: Aug 20, 2014 at 8:48:02 PM

Latest Report: Aug 20, 2014 at 6:50 PM


Visibility: N/A

Pressure: 29.92 "Hg

Humidity: 77%

Dew point: 52 °F

Location of Buchholz in der NordheideLocation

Historic Weather in Buchholz in der Nordheide — Graph

°F

Buchholz in der Nordheide temperature yesterday

Maximum temperature yesterday: 64 °F (at 3:50 PM)
Minimum temperature yesterday: 50 °F (at 5:50 AM)
Average temperature yesterday: 57 °F

Past Weeks' High & Low Weather Summary

 TemperatureHumidityPressure
High79 °F (Aug 8, 4:20 PM)100% (Aug 8, 5:50 AM)30.07 "Hg (Aug 8, 5:50 AM)
Low50 °F (Aug 19, 5:50 AM)38% (Aug 13, 3:20 PM)29.47 "Hg (Aug 18, 10:20 AM)
Average63 °F73%29.79 "Hg
* Reported Aug 5 6:20 PM — Aug 20 6:50 PM, Buchholz in der Nordheide, Weather by CustomWeather, © 2014

Note: Actual official high and low records may vary slightly from our data, if they occured in-between our weather recording intervals... More about our weather records

Advertising

Buchholz in der Nordheide weather history for previous 24 hours

 ConditionsComfort  
Time TempWeatherWind HumidityBarometerVisibility
6:50 PM
Aug 20
59 °FSprinkles. Broken clouds.9 mph77%29.92 "HgN/A
6:20 PM59 °FSprinkles. Scattered clouds.10 mph77%29.92 "HgN/A
5:50 PM57 °FSprinkles. Broken clouds.14 mph77%29.92 "HgN/A
5:20 PM57 °FSprinkles. Partly sunny.17 mph77%29.92 "HgN/A
4:50 PM59 °FSprinkles. Broken clouds.14 mph77%29.92 "HgN/A
4:20 PM57 °FSprinkles. Scattered clouds.10 mph82%29.92 "HgN/A
3:50 PM57 °FSprinkles. Partly sunny.9 mph77%29.92 "HgN/A
3:20 PM59 °FSprinkles. Partly sunny.7 mph77%29.89 "Hg5 mi
2:57 PM57 °FSprinkles. Partly sunny.9 mph82%29.89 "HgN/A
2:50 PM59 °FThunderstorms. Scattered clouds.12 mph72%29.89 "HgN/A
2:20 PM61 °FSprinkles. Partly sunny.12 mph77%29.89 "HgN/A
1:50 PM55 °FSprinkles. Partly sunny.9 mph88%29.89 "HgN/A
1:20 PM54 °FSprinkles. Partly sunny.17 mph88%29.89 "HgN/A
1:02 PM57 °FThunderstorms. Scattered clouds.14 mph82%29.89 "Hg4 mi
12:50 PM57 °FSprinkles. Partly sunny.10 mph82%29.89 "HgN/A
12:20 PM61 °FScattered showers. Partly sunny.14 mph68%29.86 "HgN/A
11:50 AM61 °FScattered showers. Partly sunny.16 mph72%N/AN/A
11:20 AM61 °FPartly sunny.20 mph72%29.86 "HgN/A
10:50 AM59 °FPartly sunny.18 mph72%29.86 "HgN/A
10:20 AM57 °FScattered clouds.20 mph77%29.86 "HgN/A
9:50 AM55 °FScattered clouds.20 mph82%29.83 "HgN/A
9:20 AM55 °FScattered clouds.20 mph77%29.83 "HgN/A
8:50 AM54 °FScattered clouds.16 mph82%29.83 "HgN/A
8:20 AM52 °FScattered clouds.15 mph88%29.83 "HgN/A
7:50 AM52 °FScattered showers. Scattered clouds.14 mph88%29.83 "HgN/A
7:20 AM50 °FScattered clouds.13 mph94%29.80 "HgN/A
6:50 AM50 °FPassing clouds.14 mph94%29.80 "HgN/A
6:20 AM50 °FPassing clouds.15 mph94%29.80 "HgN/A
Weather by CustomWeather, © 2014

See weather overviewHow to use our weather pages